RH
65 49 45 61 88 72 68 63 62 42 39 41 30 40 46 43 50 78 58 61 58 53 54 66 79 78 78 78 78 78 78 76 74 76 76 74 73 73 73 73 72 72 70 70 72 68 68 73 73
36 36 50 70 96 75 63 46 50 45 34 30 31 35 41 48 44 55 60 60 51 48 51 57 82 79 77 75 76 75 74 74 77 75 75 74 73 74 72 73 72 72 72 71 71 71 69 69 73
54 40 87 90 64 67 70 67 46 52 32 32 45 51 46 50 46 46 49 47 46 44 48 67 81 80 77 77 76 78 77 76 76 75 73 72 73 72 70 71 72 70 70 69 68 68 68 69 72
42 51 75 90 68 59 54 69 75 40 36 36 40 54 41 37 40 40 41 42 39 40 52 76 80 78 77 78 78 76 76 76 75 74 74 73 73 72 73 71 69 69 69 68 68 68 68 68 69
37 75 85 74 72 86 48 75 50 49 49 47 44 56 56 47 39 36 40 38 30 43 52 63 81 79 79 77 77 76 76 75 76 74 74 73 72 70 72 71 67 69 70 68 67 67 67 68 69
78 64 81 85 70 63 51 43 49 74 77 58 51 57 63 44 40 34 37 33 37 41 46 60 77 79 79 76 76 77 75 75 75 74 74 74 74 75 73 69 69 68 67 66 67 69 70 70 70
56 78 67 81 66 60 59 56 52 74 83 64 61 64 56 46 38 32 28 36 34 34 47 57 62 71 75 76 75 75 74 74 75 76 74 76 74 72 71 71 68 65 64 66 67 69 72 71 67
40 67 56 71 58 62 56 58 58 66 71 58 53 66 65 46 38 32 28 30 31 37 42 50 57 56 64 67 75 73 73 75 74 74 74 75 71 68 67 74 70 66 65 66 66 69 72 72 69
28 62 63 64 50 85 61 57 50 42 60 50 46 45 44 37 33 34 32 33 35 34 36 39 43 55 72 70 71 73 72 73 74 72 75 77 63 62 60 70 66 63 65 67 67 69 68 70 69
37 52 44 43 44 50 61 43 44 48 45 47 42 41 40 38 37 37 35 38 35 32 31 32 42 53 58 46 71 73 66 62 61 60 74 85 70 63 51 63 68 61 63 68 73 75 71 80 86
29 40 31 38 36 44 44 35 35 47 43 38 50 48 44 42 40 37 32 34 32 29 28 32 53 56 55 64 63 59 59 58 65 84 89 81 62 66 55 68 64 75 74 70 76 83 91 91 93
27 23 24 25 34 33 62 65 50 76 85 61 42 43 46 44 38 35 30 31 30 31 34 41 47 76 78 53 55 92 65 62 56 67 76 83 74 72 72 89 83 88 72 67 88 74 81 89 90
20 21 21 24 36 32 45 62 77 64 52 45 40 44 48 42 39 34 29 28 28 28 32 46 62 84 84 74 63 87 68 44 52 55 87 90 76 76 68 82 72 77 78 65 69 65 76 79 76
16 17 18 23 27 31 39 64 62 52 47 38 43 48 46 42 38 36 30 30 30 31 39 44 60 70 75 77 78 67 62 55 50 52 67 95 83 80 68 72 75 86 82 73 65 68 67 55 60
12 16 15 18 29 30 30 37 39 46 53 42 44 46 43 40 36 35 30 31 30 31 37 43 62 64 71 65 67 65 62 51 56 58 66 74 73 71 74 71 86 90 84 74 68 64 54 62 54
12 13 19 15 29 30 31 43 34 60 85 44 43 41 42 42 34 30 28 28 31 33 47 45 34 49 59 69 66 84 60 62 63 58 64 75 68 68 78 80 70 75 72 71 55 64 64 64 64
12 15 18 17 19 26 30 40 52 74 91 43 43 39 39 43 36 31 27 29 32 40 51 49 52 52 60 75 63 80 64 67 61 66 64 75 67 77 94 93 73 69 91 85 68 68 62 68 65
14 11 12 15 13 20 28 42 59 77 74 39 39 37 38 40 37 32 28 28 32 41 50 52 52 64 67 66 71 69 64 65 69 70 72 69 69 75 90 91 73 69 86 81 77 70 64 67 66
11 9 7 9 9 21 30 64 54 57 55 44 38 37 36 38 35 31 29 28 34 39 50 57 62 73 65 65 64 69 64 74 76 71 73 69 68 74 89 85 76 74 85 78 80 70 68 66 57
14 12 9 7 7 14 43 63 56 52 63 50 34 35 34 33 35 35 32 30 32 42 52 61 65 74 68 66 71 65 64 59 64 78 70 66 62 69 79 85 81 80 76 74 73 75 79 63 70
11 12 10 9 9 11 15 60 66 49 45 72 28 30 31 33 34 37 35 33 34 45 53 61 68 73 69 70 68 72 70 71 60 70 64 64 67 65 73 72 85 83 86 76 76 74 74 77 68
13 9 9 9 10 16 14 26 61 61 61 85 69 30 30 31 32 36 35 35 34 44 49 61 66 74 68 72 68 74 67 65 57 75 68 64 67 68 69 70 75 75 82 85 80 72 77 71 75
12 9 10 10 10 12 16 21 21 44 67 87 78 30 28 30 30 34 35 36 33 41 46 54 67 74 71 73 72 66 71 60 64 59 76 75 77 69 63 74 75 79 86 86 79 74 76 82 75
8 10 11 11 9 13 12 15 19 24 47 58 72 54 36 28 29 34 35 36 36 37 43 52 68 75 75 74 75 75 73 71 63 64 65 66 66 67 73 68 77 80 81 82 80 75 76 82 83
10 12 18 19 17 14 9 10 14 15 28 51 55 74 61 29 29 33 37 38 39 40 45 51 68 74 74 74 70 75 72 74 78 72 67 64 61 60 73 78 82 75 80 81 81 83 82 78 83
13 13 17 27 19 15 12 12 10 8 14 30 43 50 56 26 25 29 34 37 41 40 44 50 67 74 73 73 74 76 75 60 62 67 60 65 62 59 70 73 73 76 76 77 86 79 78 77 79
15 17 11 14 12 14 11 10 8 7 9 17 35 36 57 49 32 28 33 35 40 41 45 51 64 72 72 68 74 74 75 71 60 70 69 62 68 54 69 70 73 74 76 78 84 76 82 79 82
12 12 18 16 28 30 15 15 11 12 11 15 32 37 48 63 73 40 30 33 37 37 41 46 56 68 70 69 69 68 69 72 70 64 73 68 68 67 77 73 72 72 74 75 82 76 80 83 77
13 14 17 18 20 23 22 16 12 15 12 12 32 40 29 39 66 70 80 30 34 36 39 42 49 63 67 68 68 68 68 65 66 67 64 72 68 73 71 71 72 73 73 75 80 80 76 79 81
10 11 8 13 31 23 20 15 8 12 8 8 8 11 31 38 60 73 74 66 32 36 37 41 44 50 61 66 69 68 68 67 64 64 68 68 74 69 76 74 75 73 72 75 77 77 66 75 77
Wind_Speed
13 12 9 2 3 6 7 4 9 14 9 4 11 17 13 8 3 11 20 16 18 16 15 13 11 11 12 12 13 13 13 12 10 11 11 10 10 10 11 11 10 11 12 11 11 12 11 12 11
14 12 6 2 4 4 1 3 15 8 13 15 20 16 17 14 17 23 18 20 19 18 16 14 11 11 11 12 11 12 11 11 11 11 11 10 10 11 10 11 9 11 12 11 12 12 12 12 11
13 1 1 2 6 6 1 6 10 4 16 10 15 16 9 17 26 22 24 24 22 18 17 15 13 12 12 11 11 11 12 11 11 11 11 10 9 10 10 10 10 11 12 11 10 10 10 11 9
6 4 3 5 8 8 6 8 14 10 12 15 15 14 15 24 17 22 26 23 22 22 19 15 14 13 12 13 12 12 12 12 11 10 12 9 9 9 10 9 11 11 10 11 10 9 8 9 9
4 3 4 7 2 4 10 5 12 11 11 14 15 16 10 14 20 24 23 19 20 22 19 15 13 13 12 12 12 12 12 12 11 11 11 9 9 10 11 10 10 10 11 10 9 9 9 8 7
1 3 5 3 7 3 3 13 14 11 9 5 15 18 7 14 23 21 19 16 22 21 19 15 14 13 13 12 12 12 12 12 12 12 11 11 10 11 11 11 11 10 10 10 10 10 10 9 6
9 5 10 3 8 10 5 5 12 14 4 6 14 11 10 14 20 18 18 20 19 22 18 14 13 12 13 13 12 12 12 12 12 12 11 11 11 11 11 11 10 10 9 10 10 11 10 7 5
9 4 11 8 9 6 16 9 12 17 12 8 15 9 19 16 19 15 17 21 17 19 18 14 13 13 11 11 11 12 12 13 12 12 12 12 12 12 11 11 9 9 9 9 10 10 8 7 6
12 6 8 4 6 4 18 17 16 15 13 16 13 17 24 26 22 16 15 14 17 16 17 16 16 12 11 11 9 11 13 13 12 11 11 11 6 9 9 10 8 8 9 11 11 9 5 3 3
9 7 6 8 12 9 10 18 19 12 16 13 14 24 26 26 20 18 15 15 15 18 19 17 16 13 13 12 10 10 11 9 8 8 6 5 4 6 9 8 6 5 6 9 12 15 15 10 7
20 16 12 16 10 18 17 16 18 10 18 19 21 25 28 25 19 17 19 20 15 17 12 16 17 11 7 11 8 6 6 6 4 10 5 6 4 3 4 4 2 4 2 3 2 8 9 7 7
20 20 17 2 10 8 9 14 6 16 11 11 24 26 23 25 22 20 20 20 17 15 16 17 14 11 4 7 8 3 3 5 6 9 6 3 2 2 3 2 6 5 4 8 9 8 10 9 10
19 20 7 5 12 7 17 8 6 13 19 8 25 28 23 24 22 21 17 19 16 15 15 18 19 15 11 7 3 9 6 7 8 7 8 3 4 1 2 4 1 3 4 1 2 3 11 11 8
17 18 16 2 10 11 13 9 16 18 16 22 25 28 25 22 23 21 19 18 16 16 17 15 15 13 10 2 1 8 3 5 7 6 12 10 2 2 2 5 4 2 2 2 3 1 2 5 5
14 19 11 14 9 10 9 5 9 23 16 26 24 26 26 23 24 21 17 16 15 14 14 14 17 11 7 2 4 6 4 3 6 7 5 7 3 1 3 2 7 4 3 4 2 3 3 5 5
12 17 16 17 16 13 16 10 13 15 6 23 25 23 25 25 25 19 18 18 16 14 14 13 13 15 9 2 4 4 4 2 5 6 4 7 3 1 3 4 5 4 3 5 3 1 2 6 4
14 15 20 21 24 18 18 10 10 16 19 23 21 24 22 21 18 20 20 16 18 14 16 13 8 12 11 6 5 10 9 5 2 3 5 7 5 7 8 4 2 4 4 2 1 3 2 2 2
16 18 19 19 18 22 15 6 14 9 11 26 23 23 22 20 19 19 19 17 18 14 14 13 9 11 10 7 4 2 3 3 2 1 4 6 5 12 8 5 1 3 1 1 1 4 2 2 4
21 19 19 17 17 20 13 13 5 12 9 15 21 22 23 26 20 20 19 17 19 16 14 12 10 12 9 7 6 4 4 4 3 5 7 5 5 10 6 4 4 3 4 4 3 3 2 3 0
21 20 20 14 17 19 21 18 18 10 17 23 23 24 24 25 26 21 20 20 19 19 17 13 10 13 10 8 6 5 6 7 5 2 6 6 4 6 8 6 3 4 2 3 3 2 3 1 4
19 19 17 19 14 12 12 20 17 16 16 18 25 24 23 25 27 24 22 20 18 19 19 15 12 14 11 8 6 4 3 1 6 8 6 5 6 5 3 5 4 2 2 3 2 2 2 2 2
19 16 18 20 18 12 16 15 27 21 21 6 25 24 24 24 24 23 23 21 21 20 19 17 14 15 12 10 8 6 5 5 5 5 5 7 7 6 7 5 5 2 2 4 4 2 1 0 2
18 17 14 17 19 18 18 15 16 30 18 18 29 22 25 23 25 25 26 22 22 21 20 19 17 14 13 12 9 8 7 5 3 4 10 8 5 6 7 6 5 4 4 5 3 2 1 3 1
18 14 19 16 15 16 20 19 15 15 22 15 13 19 16 26 25 26 25 22 20 20 20 20 20 17 15 15 12 11 10 7 5 5 7 8 7 5 5 7 5 4 3 5 3 1 3 2 2
17 15 12 14 14 17 20 19 15 20 27 35 21 13 33 26 24 25 26 24 22 23 24 21 22 20 18 17 15 11 13 11 7 5 5 8 8 8 8 9 6 4 4 5 4 2 3 2 3
19 18 14 19 14 18 21 20 17 24 16 34 34 28 9 25 25 25 27 25 26 25 24 24 24 22 21 18 18 13 12 9 8 6 5 3 4 7 11 9 9 7 6 5 5 4 5 4 3
20 21 21 24 20 18 16 19 24 21 21 13 16 20 23 10 16 25 24 23 24 23 24 24 24 22 22 22 17 16 12 11 10 8 5 5 5 2 13 11 8 8 8 7 7 5 5 3 4
14 14 15 15 22 23 17 20 14 20 18 14 14 14 14 12 19 9 22 22 21 22 21 21 22 23 22 22 18 16 17 14 9 10 7 7 6 6 9 11 10 7 7 8 7 6 6 5 6
13 16 15 15 13 18 16 16 17 13 22 19 21 18 24 31 17 9 15 18 21 21 21 22 21 23 21 20 19 18 17 16 14 10 12 9 9 6 6 7 8 9 8 6 6 6 5 9 6
16 20 19 14 17 15 14 17 22 17 14 17 15 13 23 22 22 20 13 28 25 24 23 23 22 21 22 21 19 19 18 18 17 15 12 12 10 10 6 7 6 6 8 7 8 9 7 9 7
Wind_Direction
200 206 212 252 273 233 269 303 197 111 96 153 92 95 95 76 88 114 138 123 142 142 143 155 149 132 124 112 110 113 115 115 116 109 104 100 98 97 90 88 90 80 90 80 80 90 87 84 82
200 204 204 253 241 240 110 259 130 124 96 88 108 110 74 86 97 121 130 141 155 149 147 139 152 135 126 123 120 117 118 121 111 113 103 98 99 94 96 86 83 80 85 88 89 82 83 85 84
266 109 119 248 262 256 282 341 97 97 95 113 93 61 35 98 120 134 129 153 151 146 132 128 139 133 128 125 129 120 117 114 112 108 106 102 101 100 94 91 90 87 85 83 82 87 87 86 87
174 175 231 242 249 287 143 151 84 144 111 102 95 81 86 124 114 121 148 155 164 129 120 130 134 130 127 123 118 119 117 114 112 113 106 107 101 106 100 94 95 92 86 87 82 88 93 94 90
174 205 235 245 211 275 183 84 127 72 48 69 95 106 85 97 121 142 152 181 134 116 125 132 128 121 119 120 121 121 115 118 115 118 108 115 115 103 101 102 98 99 96 91 87 81 88 112 111
276 249 257 336 308 133 103 127 111 80 28 54 98 108 94 136 136 156 167 171 125 129 126 134 124 132 128 122 123 122 120 120 119 114 119 114 108 105 110 106 102 100 93 92 88 92 90 101 122
237 277 278 179 257 153 131 317 131 114 106 318 126 127 136 145 149 162 155 117 122 128 129 135 130 127 126 125 125 120 124 126 125 125 129 120 112 110 112 108 105 106 110 105 102 115 112 115 141
230 225 298 356 284 82 150 162 141 144 156 153 145 154 161 161 162 149 163 129 146 126 135 141 140 142 140 132 133 130 132 128 135 137 145 138 131 124 127 119 109 117 121 107 97 123 131 151 191
226 253 275 283 323 179 144 150 166 156 145 191 188 143 157 155 169 157 163 134 129 134 147 146 146 153 128 132 140 136 135 142 154 153 170 162 135 143 144 101 126 135 135 124 114 105 77 358 283
219 268 299 346 296 150 268 151 153 164 174 201 170 125 150 158 163 168 159 140 145 150 159 153 139 143 165 134 159 156 153 167 176 165 187 189 196 141 126 126 145 149 157 155 136 107 58 7 310
227 245 261 199 271 165 191 154 158 139 189 158 139 143 150 159 170 164 169 152 163 160 164 142 131 155 166 136 171 171 176 164 140 80 313 216 171 86 134 106 117 357 309 111 14 104 125 179 276
239 248 259 65 0 128 125 342 33 104 253 276 139 148 151 162 165 173 174 160 166 151 126 122 126 76 34 165 173 59 157 164 166 144 211 10 59 196 197 151 162 213 207 167 193 175 143 155 258
236 254 294 250 185 101 141 136 99 197 185 204 135 148 159 165 166 178 183 158 163 150 143 134 109 104 242 254 109 170 212 191 107 118 107 289 294 102 187 140 273 36 2 210 349 144 165 191 235
242 239 258 320 241 166 163 171 194 158 166 139 151 154 167 172 172 185 179 161 159 153 125 123 132 141 203 187 155 232 81 116 138 156 138 195 165 160 227 123 101 3 2 306 53 289 49 183 107
274 274 260 219 244 201 267 217 214 150 196 144 156 165 162 176 180 189 167 158 157 146 137 140 130 152 201 131 118 59 39 331 87 93 121 114 214 37 23 96 99 271 254 210 133 16 20 108 118
269 250 255 233 196 211 203 224 237 97 303 149 159 174 156 181 186 171 168 164 156 155 139 146 165 153 146 215 77 38 202 222 111 133 151 121 128 248 88 322 153 191 116 66 7 308 264 92 123
247 241 229 257 188 203 205 212 127 121 213 158 164 173 163 184 189 173 165 168 151 145 137 153 168 155 147 192 156 181 253 99 241 157 148 130 170 94 32 312 70 62 80 52 249 252 280 98 112
239 217 245 223 242 201 205 141 143 202 258 151 169 175 168 179 194 168 171 172 151 143 144 157 162 149 157 148 200 173 136 120 148 248 111 150 183 132 156 270 259 115 156 54 176 243 47 113 197
268 284 234 249 232 189 187 135 97 306 277 236 164 177 176 170 189 171 177 175 152 157 155 160 170 149 155 158 196 179 181 110 259 165 162 182 134 118 149 210 189 87 139 204 233 180 192 308 75
255 266 278 246 242 214 137 149 154 189 252 240 169 177 181 176 171 184 183 177 167 160 160 169 175 157 164 163 211 205 183 177 176 174 168 161 167 136 170 204 119 150 132 150 72 326 356 126 75
238 251 262 272 260 237 229 151 165 223 238 299 172 175 185 181 173 177 183 179 172 162 163 168 173 165 168 187 206 230 229 160 173 151 148 177 167 167 204 125 150 145 228 167 192 246 252 358 157
243 238 258 276 279 230 220 255 178 187 219 328 292 174 184 185 182 171 179 182 179 166 164 165 175 166 181 194 188 200 213 198 180 147 218 166 170 179 156 154 157 165 122 147 239 224 67 67 281
247 254 242 246 270 275 258 222 258 165 177 165 228 185 181 188 184 178 181 186 180 166 167 170 174 179 179 198 188 192 217 217 174 188 158 154 169 176 171 152 168 172 195 172 231 151 131 267 156
240 246 262 261 239 248 249 258 245 202 173 157 233 238 242 187 188 181 180 180 182 171 172 170 175 183 184 193 207 188 199 221 205 200 156 159 170 182 164 167 176 177 209 143 225 187 204 323 26
235 216 235 234 233 243 234 240 244 269 162 168 165 224 257 184 186 179 176 178 184 182 175 175 176 182 186 188 204 207 190 214 246 213 189 179 177 183 182 167 168 191 206 171 182 204 309 234 297
211 222 228 226 232 238 233 249 235 250 239 172 175 188 259 183 180 180 180 182 185 186 181 179 176 181 182 188 199 202 196 208 214 241 199 225 205 183 173 170 170 180 186 194 160 191 225 201 217
247 218 242 262 254 248 251 226 229 243 242 179 149 164 168 257 251 179 179 187 184 188 185 182 178 182 184 191 187 198 206 206 204 217 212 198 246 286 155 169 173 182 175 206 171 222 206 235 214
252 286 240 226 252 265 263 260 241 206 220 193 154 142 160 186 268 200 174 186 188 191 185 184 179 185 186 188 190 191 201 199 208 204 224 207 227 226 167 174 179 181 195 189 184 217 192 205 209
236 257 257 279 263 248 258 260 272 226 203 208 181 169 164 191 179 321 304 196 193 189 188 186 185 181 187 190 193 194 192 201 205 208 200 201 219 242 174 176 174 180 197 197 196 224 226 209 200
257 274 251 242 245 271 265 250 264 10 199 206 228 226 186 159 153 179 303 280 182 186 190 186 187 187 190 190 190 196 196 197 199 210 201 208 196 200 201 183 184 193 193 201 203 210 241 195 214